ORBCOMM FM39 [-]

Last updated on Fri Dec 29 2023 00:02:54 GMT+0000 (Coordinated Universal Time)

1 33063U 08031D 23362.03247767 .00002470 00000+0 38959-3 0 9998 2 33063 48.4421 19.2154 0007576 224.3973 135.6334 14.75403371834798
UTC large
Height (km)
Speed (km/s)
/
Latitude / Longitude
Inclination (degrees)
Orbital Period (minutes)
Azimuth
Elevation
Range (km)
Doppler Factor

Next 0 passes for location: London (51.5072 / 0.1276)

Sorry there are no passes over London.